Probability
0 0 0 0 0 0 0 0 0 1 2 3 1 0 0 0 1 0 0 0 0 0 1 5 9 11 10 8 6 4 4 5 5 5 6 6 4 3 3 3 3 3 3 3 3 3 3 3 3
0 0 0 0 0 0 0 0 0 1 2 2 2 1 1 1 1 1 0 0 0 0 2 5 9 10 10 8 5 4 5 7 7 6 6 5 4 3 3 3 3 3 3 3 3 3 3 3 3
0 0 0 0 0 0 0 0 1 2 2 1 1 2 2 3 2 1 0 0 0 1 3 5 8 9 9 9 6 4 5 7 8 7 6 4 3 3 3 3 3 3 3 3 3 3 3 3 3
0 0 0 0 0 0 0 0 1 1 1 0 1 2 3 3 2 1 1 1 2 3 3 4 5 6 7 10 12 9 6 5 6 8 8 7 5 4 4 3 3 3 3 3 3 3 3 3 3
0 0 0 0 0 0 0 0 0 0 0 0 0 1 1 2 1 1 3 4 4 3 2 3 4 4 5 16 29 25 12 7 6 9 12 10 7 6 4 3 3 3 4 4 5 4 4 3 3
0 0 0 0 0 0 0 0 0 0 0 0 0 1 1 2 1 1 3 4 4 2 1 2 3 4 8 26 46 43 27 18 13 12 14 10 6 4 4 3 3 5 9 14 17 14 8 7 9
0 0 0 0 0 0 0 0 0 0 0 0 1 2 3 2 2 1 1 2 3 3 3 3 3 3 10 34 59 61 52 45 33 23 18 13 10 10 8 6 8 14 18 22 27 22 10 9 13
0 0 0 0 0 0 0 0 0 0 1 1 1 3 5 8 10 10 7 4 4 5 4 3 3 3 8 27 51 65 71 69 55 35 21 16 17 17 13 11 16 22 18 15 15 12 6 5 6
0 0 0 0 0 0 0 0 0 1 2 2 3 8 19 31 37 35 24 10 5 5 4 3 3 3 5 12 25 40 54 57 46 28 14 11 11 11 10 14 22 21 10 3 1 1 1 0 0
0 0 0 0 0 0 0 0 0 1 2 3 5 20 44 61 63 52 29 11 5 4 3 3 3 3 3 3 5 11 18 20 17 10 4 2 2 2 3 11 20 15 4 0 0 0 0 0 0
0 0 0 0 0 0 0 0 0 0 1 2 10 35 62 70 65 47 23 8 4 3 3 3 3 3 2 2 1 1 1 1 1 1 0 0 0 0 0 5 8 6 1 0 0 0 0 0 0
0 0 0 0 0 0 0 0 0 0 0 4 23 53 67 62 58 47 23 7 3 3 3 3 3 2 1 1 0 0 0 0 0 0 0 0 0 0 0 0 0 0 0 0 0 0 0 0 0
0 0 0 0 0 0 0 0 0 0 1 9 31 54 57 55 65 60 29 8 4 3 3 3 3 2 1 0 0 0 0 0 0 0 0 0 0 0 0 0 0 0 0 0 0 0 0 0 0
0 0 0 0 0 0 0 0 0 0 1 8 21 30 31 45 72 71 37 13 10 9 6 3 3 3 2 1 0 0 0 0 0 0 0 0 0 0 0 0 0 0 0 0 0 0 0 0 0
0 0 0 0 0 0 0 0 0 0 1 4 8 8 9 24 55 69 46 22 19 18 10 4 3 3 3 2 1 0 0 0 0 0 0 0 0 0 0 0 0 0 0 0 0 0 0 0 0
0 0 0 0 0 0 0 0 0 0 1 2 3 3 2 6 24 43 41 27 23 20 12 5 3 3 3 2 1 0 0 0 0 0 0 0 0 0 0 0 0 0 0 0 0 0 0 0 0
0 0 0 0 0 0 0 0 0 0 1 2 3 2 1 0 5 13 21 24 21 16 9 4 2 2 2 1 0 0 0 0 0 0 0 0 0 0 0 0 0 0 0 0 0 0 0 0 0
0 0 0 0 0 0 0 0 0 0 1 1 1 1 0 0 0 0 6 12 13 8 5 2 1 0 0 0 0 0 0 0 0 0 0 0 0 0 0 0 0 0 0 0 0 0 0 0 0
0 0 0 0 0 0 0 0 0 0 0 0 0 0 0 0 0 0 1 3 3 2 1 1 0 0 0 0 0 0 0 0 0 0 0 0 0 0 0 1 1 1 1 1 1 0 0 0 0
0 0 0 0 0 0 0 0 0 0 0 0 0 0 0 0 0 0 0 0 0 0 0 0 0 0 0 0 0 0 0 0 0 0 0 0 0 0 0 1 2 2 2 2 1 0 0 0 0
0 0 0 0 0 0 0 0 0 0 0 0 0 0 0 0 0 0 0 0 0 0 0 0 0 0 0 0 0 0 0 0 0 0 0 0 0 0 0 1 1 1 1 1 1 0 0 0 0
0 0 0 0 0 0 0 0 0 0 0 0 0 0 0 0 0 0 0 0 0 0 0 0 0 0 0 0 0 0 0 0 0 0 0 0 0 0 0 0 0 0 0 0 0 0 0 0 0
0 0 0 0 0 0 0 0 0 0 0 0 0 0 0 0 0 0 0 0 0 0 0 0 0 0 0 0 0 0 0 0 0 0 0 0 0 0 0 0 0 0 0 0 0 0 0 0 0
0 0 0 0 0 0 0 0 0 0 0 0 0 0 0 0 0 0 0 0 0 0 0 0 0 0 0 0 0 0 0 0 0 0 0 0 0 0 0 0 0 0 0 0 0 0 0 0 0
0 0 0 0 0 0 0 0 0 0 0 0 0 0 0 0 0 0 0 0 0 0 0 0 0 0 0 0 0 0 0 0 0 0 0 0 0 0 0 0 0 0 0 0 0 0 0 0 0
0 0 0 0 0 0 0 0 0 0 0 0 0 0 0 0 0 0 0 0 0 0 0 0 0 0 0 0 0 0 0 0 0 0 0 0 0 0 0 0 0 0 0 0 0 0 0 0 0
0 0 0 0 0 0 0 0 0 0 0 0 0 0 0 0 0 0 0 0 0 0 0 0 0 0 0 0 0 0 0 0 0 0 0 0 0 0 0 0 0 0 0 0 0 0 0 0 0
0 0 0 0 0 0 0 0 0 0 0 0 0 0 0 0 0 0 0 0 0 0 0 0 0 0 0 0 0 0 0 0 0 0 0 0 0 0 0 0 0 0 0 0 0 0 0 0 0
0 0 0 0 0 0 0 0 0 0 0 0 0 0 0 0 0 0 0 0 0 0 0 0 0 0 0 0 0 0 0 0 0 0 0 0 0 0 0 0 0 0 0 0 0 0 0 0 0
0 0 0 0 0 0 0 0 0 0 0 0 0 0 0 0 0 0 0 0 0 0 0 0 0 0 0 0 0 0 0 0 0 0 0 0 0 0 0 0 0 0 0 0 0 0 0 0 0
Wind_Speed
1 1 2 3 5 4 2 3 2 2 3 3 4 5 9 7 7 6 6 4 7 7 5 3 3 8 10 11 9 9 9 8 8 8 9 7 6 5 4 4 3 3 3 4 3 2 3 3 3
2 2 3 4 5 1 3 3 2 3 2 3 2 2 1 3 4 7 6 5 8 3 1 3 5 5 7 9 9 8 9 10 9 8 9 8 6 5 3 3 2 1 2 2 2 2 3 3 3
2 3 3 4 3 4 4 3 2 2 1 1 1 2 2 4 6 4 2 7 6 2 4 2 5 9 8 7 10 8 10 11 10 9 8 7 4 4 5 6 4 4 4 3 1 1 2 3 4
2 3 4 2 2 4 4 4 6 5 2 1 1 0 3 4 3 1 5 9 5 3 6 3 3 6 8 7 8 5 5 8 9 9 9 6 2 3 6 2 2 4 5 3 4 4 5 6 6
3 3 3 2 4 4 3 4 7 4 1 2 2 2 2 3 4 6 6 7 5 4 4 5 4 3 4 6 9 4 3 4 4 5 7 7 5 3 7 4 4 3 2 4 2 3 4 7 7
3 3 2 2 5 4 3 7 7 2 2 2 3 2 2 0 2 6 6 6 4 3 3 4 4 3 4 4 7 4 2 2 2 3 5 5 5 6 6 2 3 4 3 5 7 4 6 7 6
3 3 2 2 4 3 4 7 5 6 4 4 5 3 1 0 2 7 5 6 4 3 4 3 3 3 4 8 10 6 5 4 3 3 4 4 3 2 2 0 2 2 6 7 7 7 5 3 6
4 4 0 2 2 1 3 6 4 6 3 3 3 3 4 4 5 8 6 6 4 3 4 4 4 3 3 5 8 9 10 9 7 6 4 3 3 3 3 2 3 7 9 7 6 2 4 8 10
3 4 3 2 1 2 3 3 2 3 4 1 2 3 6 11 10 8 7 5 4 4 4 3 3 3 3 4 5 7 7 8 7 5 6 5 3 3 3 3 4 6 6 7 8 8 8 10 11
3 1 3 3 2 2 2 3 5 4 3 1 1 4 11 13 11 9 10 7 6 5 4 3 3 3 3 3 4 3 3 3 3 2 3 3 3 3 4 4 6 7 8 8 10 11 11 7 4
2 2 3 4 2 3 4 5 5 7 4 7 8 11 12 12 10 10 11 8 7 6 5 5 5 4 4 3 2 1 1 2 1 1 2 3 3 3 3 3 4 4 5 4 6 5 3 3 3
0 3 2 3 1 3 5 5 5 7 5 5 12 17 16 16 14 11 8 7 8 8 8 6 5 4 4 3 2 1 1 1 0 0 1 2 2 2 2 2 3 3 3 3 3 2 3 4 4
1 2 3 3 2 2 3 4 5 8 1 5 9 13 16 16 13 10 7 6 7 8 6 5 5 4 3 2 2 1 0 1 1 1 1 2 2 2 2 1 1 1 2 2 3 3 4 5 6
1 3 5 3 2 2 3 1 2 5 4 7 9 10 10 12 13 8 6 6 8 7 5 4 4 3 4 3 3 2 2 2 1 0 0 2 2 2 1 0 1 2 2 2 2 3 3 4 5
1 3 4 2 1 3 3 0 5 5 9 9 10 9 6 7 11 13 14 14 13 8 6 5 4 4 4 4 4 2 2 2 1 0 0 2 1 0 0 1 2 3 3 4 4 5 4 4 5
3 3 2 4 0 2 5 7 9 6 10 9 8 7 7 8 12 14 14 11 7 6 6 6 6 6 5 4 3 1 1 1 1 1 1 1 2 1 1 2 3 4 4 5 5 5 5 5 5
4 0 1 5 1 1 2 8 7 6 8 8 9 9 7 7 8 9 9 6 6 7 7 7 6 6 7 6 3 2 1 1 1 2 2 3 4 5 4 4 4 6 5 4 4 4 4 5 7
1 0 1 4 3 1 3 6 5 2 9 12 10 5 4 6 7 5 4 5 5 5 3 1 2 5 5 5 4 4 4 4 4 4 4 4 4 5 4 3 4 4 4 5 4 5 6 6 8
2 1 2 6 3 1 3 4 2 2 3 5 3 3 6 6 2 3 5 6 7 7 7 8 8 8 5 3 2 2 3 3 3 3 4 4 4 4 3 2 3 3 3 5 7 6 8 7 5
3 2 3 4 4 1 2 3 2 2 3 3 3 4 5 3 3 5 7 8 7 8 9 9 8 6 4 3 2 2 2 2 2 1 2 2 2 2 1 1 2 3 3 5 6 6 6 5 4
3 4 3 3 1 4 4 5 7 6 8 11 9 7 8 5 5 6 8 8 9 8 8 8 6 7 5 5 4 3 3 1 1 2 2 2 2 2 2 2 3 4 3 4 5 4 4 6 5
2 2 3 3 3 2 3 1 2 4 9 11 10 9 10 9 9 9 9 8 8 7 8 8 7 7 5 5 4 4 2 1 2 3 3 3 4 5 5 5 5 4 3 3 3 4 3 5 6
3 4 3 4 4 2 4 2 4 6 8 8 8 9 10 9 10 10 10 9 9 7 7 7 7 7 5 5 5 4 2 1 2 2 4 5 5 5 6 6 5 5 4 4 5 4 4 4 8
6 6 7 6 5 2 1 1 4 6 6 4 5 8 8 9 10 11 10 9 8 7 6 6 7 6 4 5 4 3 2 2 3 4 4 5 5 5 6 7 6 6 5 5 5 6 7 7 10
5 6 3 3 2 2 1 3 2 7 9 2 3 6 9 9 9 9 9 7 7 6 6 5 6 5 6 6 6 5 5 4 4 4 4 5 5 5 8 7 6 7 6 7 8 9 10 9 11
3 7 7 5 4 3 1 2 1 3 6 6 7 7 9 9 8 8 9 8 8 7 7 7 6 7 8 8 7 7 6 4 3 3 4 5 5 7 9 7 8 10 10 10 11 11 11 11 10
4 3 4 7 2 1 1 2 1 3 7 8 8 9 9 8 8 7 6 7 7 6 6 7 7 8 7 6 5 5 4 3 4 5 5 5 6 7 8 10 11 12 12 12 12 10 12 11 10
3 6 3 3 5 4 3 4 7 3 2 6 7 7 8 7 7 7 7 7 7 6 6 6 5 4 3 3 4 4 4 4 5 6 7 8 8 8 9 11 12 12 12 12 11 10 11 11 10
2 2 3 3 2 5 5 4 2 4 2 3 4 4 5 5 6 6 6 6 5 6 6 6 7 7 7 6 6 6 6 6 6 7 8 9 10 11 11 13 12 13 12 12 10 10 11 12 11
4 3 4 4 2 3 3 3 3 4 3 2 2 3 2 3 4 4 5 6 6 6 6 6 6 6 6 7 8 8 8 8 8 8 9 10 11 12 12 12 12 11 11 11 11 11 11 11 11
Wind_Direction
215 86 101 67 57 61 248 245 223 213 205 178 141 156 168 169 178 232 318 18 83 63 2 340 106 109 125 132 140 142 141 137 135 132 125 117 113 121 135 150 149 134 136 137 133 126 116 73 38
51 59 53 63 81 90 255 252 230 217 164 112 65 21 100 265 288 313 347 55 79 68 56 86 104 102 111 125 135 147 150 145 140 137 135 131 133 135 142 133 130 131 134 127 113 73 37 25 13
54 59 73 78 106 188 223 240 172 123 125 4 15 8 345 302 315 320 347 80 82 25 86 103 148 130 126 143 142 156 163 154 155 149 142 137 147 177 179 169 180 217 203 185 193 238 272 281 295
96 60 50 83 226 227 205 199 151 155 195 168 173 326 293 298 289 13 60 102 106 71 80 101 92 117 130 147 138 155 166 164 172 160 142 132 131 330 304 274 235 239 241 227 224 220 242 263 276
60 78 53 19 260 248 223 180 156 165 173 176 187 201 275 293 321 43 75 95 114 104 88 89 66 56 99 156 133 143 175 185 186 159 137 149 158 189 274 310 318 308 272 288 287 282 283 282 289
54 73 70 274 265 265 218 166 146 156 197 200 144 139 308 179 49 71 70 60 62 74 84 91 91 69 60 79 100 116 152 192 189 145 135 158 190 205 234 269 292 294 328 341 316 313 291 289 308
120 100 195 235 276 274 184 147 150 170 180 213 174 123 306 247 144 104 80 66 60 98 108 92 73 91 87 77 76 82 81 74 88 121 143 171 196 171 149 151 294 296 51 28 4 18 338 21 36
125 105 275 248 264 276 160 150 147 137 176 182 166 170 205 170 132 98 86 88 104 110 95 83 75 70 65 73 84 87 88 82 75 68 69 76 80 108 114 106 63 65 69 63 70 38 50 57 44
102 67 325 294 239 253 164 154 111 118 123 145 220 199 150 126 121 113 102 102 114 104 89 94 100 94 83 78 90 91 88 83 75 67 61 67 65 70 73 64 63 61 62 58 54 47 43 39 30
99 100 249 234 228 201 169 147 132 114 142 184 49 94 114 119 129 141 155 158 143 143 159 155 151 121 90 71 70 65 66 70 68 64 62 61 55 56 57 48 54 47 41 39 40 36 30 27 15
147 208 264 269 207 146 169 158 139 129 210 216 174 147 135 139 154 173 179 162 154 160 181 182 167 151 132 112 105 91 79 75 64 33 22 55 55 42 39 33 37 28 30 22 26 19 14 5 353
276 267 250 275 106 122 181 150 158 170 211 199 168 155 155 169 180 179 181 160 167 181 190 181 174 168 152 133 118 80 64 76 83 63 85 87 84 65 54 45 28 20 7 10 3 348 341 343 340
202 291 294 287 126 115 146 172 180 221 269 120 139 163 175 178 181 182 186 171 181 193 190 179 167 156 122 107 110 120 191 171 152 129 122 109 118 118 111 93 40 11 357 358 338 334 335 335 332
256 292 306 323 338 163 160 159 154 231 143 132 150 183 187 185 183 176 180 190 199 199 184 168 169 150 138 154 169 180 181 166 150 185 209 125 127 129 130 137 298 289 284 284 303 318 324 316 312
336 340 337 308 218 209 134 147 242 198 155 166 183 193 180 189 183 192 196 201 198 188 163 166 174 176 178 186 189 182 182 160 171 288 7 114 119 133 146 263 281 283 295 308 321 323 322 316 311
20 42 352 291 223 249 158 235 245 190 162 179 194 199 182 199 200 203 207 210 186 157 153 168 185 180 191 195 192 189 194 182 199 199 234 213 209 222 316 322 307 320 326 330 330 322 316 307 295
16 128 332 308 318 272 208 245 242 176 166 181 202 206 194 213 221 213 206 185 158 153 156 187 194 192 199 196 178 130 91 33 4 4 347 349 360 2 359 345 340 342 336 330 323 309 300 296 286
215 55 319 278 292 329 264 273 294 202 174 193 212 220 221 227 233 219 189 139 122 110 121 236 356 6 8 21 34 40 46 35 28 23 29 32 31 27 22 359 345 349 338 324 319 303 295 281 284
181 231 283 278 279 1 272 271 278 156 184 217 243 267 263 259 246 155 116 104 94 83 72 51 48 47 54 58 63 74 67 63 58 47 48 55 54 51 51 24 337 331 322 306 304 314 315 308 295
189 209 248 274 329 41 333 340 348 71 47 26 311 277 297 310 57 81 92 94 90 89 91 89 96 100 91 90 79 89 104 122 132 113 62 59 65 58 45 325 299 296 302 306 317 328 313 293 278
183 178 186 198 350 35 34 354 2 13 22 22 24 43 37 42 60 58 66 77 83 82 87 94 105 105 111 125 115 93 85 50 342 328 322 319 334 329 338 329 311 313 319 320 322 311 298 297 295
179 165 134 105 80 0 43 248 9 23 29 13 3 26 29 25 38 43 49 56 66 76 86 100 110 109 114 123 124 109 87 318 296 298 302 317 334 337 345 344 329 313 302 286 271 262 266 280 291
169 104 73 72 83 61 14 68 312 5 27 17 5 22 28 29 43 49 51 60 65 74 86 91 87 75 60 55 52 60 50 302 294 306 318 327 331 340 338 332 316 302 292 283 279 268 260 269 284
123 79 44 41 58 71 225 124 318 354 325 344 3 22 26 29 41 49 53 62 61 59 68 75 82 71 58 59 49 58 19 331 331 329 332 331 325 326 323 319 311 301 293 280 268 261 260 263 269
79 93 46 4 26 233 192 120 279 322 333 24 50 28 26 27 33 46 56 59 59 55 53 57 63 47 34 42 41 39 34 24 2 344 332 321 319 318 319 316 314 308 299 292 287 283 279 266 261
143 135 159 181 189 261 43 115 212 358 5 18 36 39 42 40 42 48 44 37 26 22 28 38 43 39 31 32 37 46 42 33 2 327 309 300 300 303 303 304 308 299 291 286 282 279 276 270 260
143 127 129 116 95 232 188 128 158 48 27 18 31 37 32 30 37 44 36 24 15 20 32 37 45 46 42 43 43 39 21 353 314 296 280 278 285 295 302 300 296 290 283 280 277 272 270 265 261
98 129 116 119 154 208 246 212 189 154 38 25 22 23 19 20 23 16 12 16 18 26 38 45 53 56 44 32 20 3 340 318 312 311 311 309 303 295 294 293 290 288 286 283 275 275 274 271 269
91 64 88 125 148 182 208 241 179 152 141 59 21 32 34 17 10 9 9 11 21 27 31 29 22 16 13 3 354 346 336 328 319 310 306 302 298 288 285 290 287 285 288 287 285 288 290 287 285
95 111 126 151 195 148 183 217 122 110 76 42 44 71 35 355 346 347 354 7 18 15 12 12 6 0 353 347 344 340 329 320 311 302 298 298 294 288 286 287 286 290 294 297 297 295 296 296 294